{"data":{"norad_id":64727,"epoch":"2026-09-20T17:18:52.659648Z","epoch_age_seconds":108838,"freshness":"FRESH","line1":"1 64727U 25144D   26263.72144282  .00018450  00000+0  55538-3 0  9997","line2":"2 64727  53.1620 354.3231 0001208  87.7808 272.3333 15.34427207 69581","mean_motion":15.34427207,"eccentricity":0.0001208,"inclination_deg":53.162,"raan_deg":354.3231,"arg_perigee_deg":87.7808,"mean_anomaly_deg":272.3333,"bstar":0.00055538,"rev_number":6958,"period_min":93.846094062382,"perigee_km":461.79601273166,"apogee_km":463.44874019702,"semimajor_km":6840.7593764643,"source":"CELESTRAK","updated_at":"2026-09-21T09:00:35.409160Z"}}